This demonstration page uses our WeatherBlox Daily Observations layout. Learn more.

Left ArrowRight Arrow

44.8408, -93.29828

Hourly Observations for December 31, 2019

Temp ( °F °C ) Dew Point ( °F °C ) Humidity (%) Winds ( mph kmh ) Pressure ( in mb ) Visibility ( mi km ) Precip ( " mm )
12:27 am 00:27 Cloudy 21 -6.1 16 -8.9 81 81 NW 16 26 29.69 1005 10 16 0.00 0.00
12:53 am 00:53 Cloudy 22 -5.6 16 -8.9 78 78 NW 15 24 29.66 1004 10 16 0.00 0.00
1:46 am 01:46 Cloudy 22 -5.6 17 -8.3 82 82 WNW 12 19 29.71 1006 10 16 0.00 0.00
1:53 am 01:53 Cloudy 22 -5.6 16 -8.9 78 78 NW 13 20 29.67 1005 10 16 0.00 0.00
2:34 am 02:34 Cloudy 22 -5.6 17 -8.3 82 82 WNW 13 20 29.73 1007 10 16 0.00 0.00
2:53 am 02:53 Cloudy 22 -5.6 16 -8.9 78 78 WNW 14 22 29.70 1006 10 16 0.00 0.00
3:12 am 03:12 Cloudy 22 -5.6 17 -8.3 82 82 NW 15 24 29.74 1007 10 16 0.00 0.00
3:53 am 03:53 Cloudy 22 -5.6 16 -8.9 78 78 NW 17 28 29.72 1006 10 16 0.00 0.00
4:53 am 04:53 Cloudy 22 -5.6 17 -8.3 82 82 NW 16 26 29.74 1007 10 16 0.00 0.00
5:53 am 05:53 Cloudy 22 -5.6 16 -8.9 78 78 NW 13 20 29.76 1008 10 16 0.00 0.00
6:53 am 06:53 Cloudy 21 -6.1 16 -8.9 81 81 NW 14 22 29.78 1008 10 16 0.00 0.00
7:53 am 07:53 Cloudy 20 -6.7 15 -9.4 81 81 NW 14 22 29.80 1009 10 16 0.00 0.00
8:53 am 08:53 Mostly Cloudy 19 -7.2 15 -9.4 84 84 WNW 9 15 29.83 1010 10 16 0.00 0.00
9:53 am 09:53 Mostly Cloudy 19 -7.2 13 -10.6 77 77 WNW 8 13 29.84 1010 10 16 0.00 0.00
10:03 am 10:03 Partly Cloudy 19 -7.2 13 -10.6 77 77 NW 8 13 29.87 1012 10 16 0.00 0.00
10:53 am 10:53 Partly Cloudy 20 -6.7 14 -10 78 78 W 9 15 29.85 1011 10 16 0.00 0.00
11:53 am 11:53 Mostly Sunny 22 -5.6 13 -10.6 68 68 NW 12 19 29.83 1010 10 16 0.00 0.00
12:53 pm 12:53 Mostly Sunny 23 -5 14 -10 68 68 W 7 11 29.82 1010 10 16 0.00 0.00
1:53 pm 13:53 Sunny 23 -5 14 -10 68 68 W 7 11 29.82 1010 10 16 0.00 0.00
2:53 pm 14:53 Sunny 23 -5 13 -10.6 65 65 WSW 8 13 29.82 1010 10 16 0.00 0.00
3:53 pm 15:53 Sunny 22 -5.6 12 -11.1 66 66 WSW 10 17 29.85 1011 10 16 0.00 0.00
4:53 pm 16:53 Clear 19 -7.2 11 -11.7 71 71 SW 9 15 29.85 1011 10 16 0.00 0.00
5:53 pm 17:53 Clear 17 -8.3 10 -12.2 74 74 WSW 9 15 29.86 1011 10 16 0.00 0.00
6:53 pm 18:53 Clear 16 -8.9 9 -12.8 74 74 WSW 8 13 29.85 1011 10 16 0.00 0.00
7:53 pm 19:53 Clear 15 -9.4 9 -12.8 77 77 WSW 7 11 29.84 1011 10 16 0.00 0.00
8:53 pm 20:53 Mostly Clear 14 -10 9 -12.8 80 80 SW 7 11 29.83 1010 10 16 0.00 0.00
9:53 pm 21:53 Mostly Clear 14 -10 9 -12.8 80 80 SSW 3 6 29.80 1009 10 16 0.00 0.00
10:53 pm 22:53 Clear 14 -10 9 -12.8 80 80 S 5 7 29.78 1008 10 16 0.00 0.00
11:53 pm 23:53 Mostly Clear 14 -10 9 -12.8 80 80 SW 5 7 29.76 1008 10 16 0.00 0.00

Powered by AerisWeather